Year,Month,Day,Hour,Minute,Value (Times are PST for temperature in C)
2016,04,30,00,00,10.70
2016,04,30,00,01,10.70
2016,04,30,00,02,10.70
2016,04,30,00,03,10.70
2016,04,30,00,04,10.70
2016,04,30,00,05,10.70
2016,04,30,00,06,10.70
2016,04,30,00,07,10.70
2016,04,30,00,08,10.70
2016,04,30,00,09,10.70
2016,04,30,00,10,10.60
2016,04,30,00,11,10.60
2016,04,30,00,12,10.60
2016,04,30,00,13,10.60
2016,04,30,00,14,10.50
2016,04,30,00,15,10.50
2016,04,30,00,16,10.40
2016,04,30,00,17,10.40
2016,04,30,00,18,10.40
2016,04,30,00,19,10.30
2016,04,30,00,20,10.30
2016,04,30,00,21,10.30
2016,04,30,00,22,10.30
2016,04,30,00,23,10.20
2016,04,30,00,24,10.20
2016,04,30,00,25,10.20
2016,04,30,00,26,10.20
2016,04,30,00,27,10.20
2016,04,30,00,28,10.10
2016,04,30,00,29,10.10
2016,04,30,00,30,10.10
2016,04,30,00,31,10.10
2016,04,30,00,32,10.10
2016,04,30,00,33,10.10
2016,04,30,00,34,10.10
2016,04,30,00,35,10.10
2016,04,30,00,36,10.00
2016,04,30,00,37,10.00
2016,04,30,00,38,10.00
2016,04,30,00,39,10.00
2016,04,30,00,40,10.00
2016,04,30,00,41,9.90
2016,04,30,00,42,9.90
2016,04,30,00,43,9.90
2016,04,30,00,44,9.90
2016,04,30,00,45,9.90
2016,04,30,00,46,9.90
2016,04,30,00,47,9.90
2016,04,30,00,48,9.90
2016,04,30,00,49,9.90
2016,04,30,00,50,9.90
2016,04,30,00,51,9.90
2016,04,30,00,52,9.80
2016,04,30,00,53,9.90
2016,04,30,00,54,9.80
2016,04,30,00,55,9.80
2016,04,30,00,56,9.80
2016,04,30,00,57,9.80
2016,04,30,00,58,9.80
2016,04,30,00,59,9.80
2016,04,30,01,00,9.80
2016,04,30,01,01,9.70
2016,04,30,01,02,9.70
2016,04,30,01,03,9.70
2016,04,30,01,04,9.70
2016,04,30,01,05,9.70
2016,04,30,01,06,9.70
2016,04,30,01,07,9.60
2016,04,30,01,08,9.60
2016,04,30,01,09,9.60
2016,04,30,01,10,9.60
2016,04,30,01,11,9.60
2016,04,30,01,12,9.60
2016,04,30,01,13,9.60
2016,04,30,01,14,9.60
2016,04,30,01,15,9.60
2016,04,30,01,16,9.60
2016,04,30,01,17,9.60
2016,04,30,01,18,9.60
2016,04,30,01,19,9.60
2016,04,30,01,20,9.60
2016,04,30,01,21,9.60
2016,04,30,01,22,9.60
2016,04,30,01,23,9.60
2016,04,30,01,24,9.60
2016,04,30,01,25,9.60
2016,04,30,01,26,9.60
2016,04,30,01,27,9.50
2016,04,30,01,28,9.50
2016,04,30,01,29,9.50
2016,04,30,01,30,9.50
2016,04,30,01,31,9.40
2016,04,30,01,32,9.50
2016,04,30,01,33,9.40
2016,04,30,01,34,9.40
2016,04,30,01,35,9.40
2016,04,30,01,36,9.40
2016,04,30,01,37,9.40
2016,04,30,01,38,9.50
2016,04,30,01,39,9.50
2016,04,30,01,40,9.50
2016,04,30,01,41,9.50
2016,04,30,01,42,9.50
2016,04,30,01,43,9.50
2016,04,30,01,44,9.50
2016,04,30,01,45,9.50
2016,04,30,01,46,9.40
2016,04,30,01,47,9.40
2016,04,30,01,48,9.40
2016,04,30,01,49,9.50
2016,04,30,01,50,9.50
2016,04,30,01,51,9.50
2016,04,30,01,52,9.50
2016,04,30,01,53,9.40
2016,04,30,01,54,9.40
2016,04,30,01,55,9.40
2016,04,30,01,56,9.40
2016,04,30,01,57,9.40
2016,04,30,01,58,9.40
2016,04,30,01,59,9.40
2016,04,30,02,00,9.30
2016,04,30,02,01,9.30
2016,04,30,02,02,9.30
2016,04,30,02,03,9.30
2016,04,30,02,04,9.30
2016,04,30,02,05,9.30
2016,04,30,02,06,9.30
2016,04,30,02,07,9.20
2016,04,30,02,08,9.20
2016,04,30,02,09,9.20
2016,04,30,02,10,9.20
2016,04,30,02,11,9.20
2016,04,30,02,12,9.20
2016,04,30,02,13,9.20
2016,04,30,02,14,9.20
2016,04,30,02,15,9.20
2016,04,30,02,16,9.20
2016,04,30,02,17,9.20
2016,04,30,02,18,9.20
2016,04,30,02,19,9.20
2016,04,30,02,20,9.10
2016,04,30,02,21,9.10
2016,04,30,02,22,9.20
2016,04,30,02,23,9.20
2016,04,30,02,24,9.20
2016,04,30,02,25,9.20
2016,04,30,02,26,9.20
2016,04,30,02,27,9.10
2016,04,30,02,28,9.10
2016,04,30,02,29,9.10
2016,04,30,02,30,9.10
2016,04,30,02,31,9.10
2016,04,30,02,32,9.10
2016,04,30,02,33,9.10
2016,04,30,02,34,9.00
2016,04,30,02,35,9.00
2016,04,30,02,36,9.00
2016,04,30,02,37,9.00
2016,04,30,02,38,8.90
2016,04,30,02,39,8.90
2016,04,30,02,40,8.90
2016,04,30,02,41,8.90
2016,04,30,02,42,8.80
2016,04,30,02,43,8.80
2016,04,30,02,44,8.80
2016,04,30,02,45,8.80
2016,04,30,02,46,8.80
2016,04,30,02,47,8.80
2016,04,30,02,48,8.80
2016,04,30,02,49,8.70
2016,04,30,02,50,8.70
2016,04,30,02,51,8.70
2016,04,30,02,52,8.70
2016,04,30,02,53,8.70
2016,04,30,02,54,8.70
2016,04,30,02,55,8.70
2016,04,30,02,56,8.70
2016,04,30,02,57,8.70
2016,04,30,02,58,8.60
2016,04,30,02,59,8.60
2016,04,30,03,00,8.60
2016,04,30,03,01,8.60
2016,04,30,03,02,8.60
2016,04,30,03,03,8.60
2016,04,30,03,04,8.60
2016,04,30,03,05,8.50
2016,04,30,03,06,8.50
2016,04,30,03,07,8.50
2016,04,30,03,08,8.50
2016,04,30,03,09,8.50
2016,04,30,03,10,8.50
2016,04,30,03,11,8.50
2016,04,30,03,12,8.50
2016,04,30,03,13,8.40
2016,04,30,03,14,8.40
2016,04,30,03,15,8.40
2016,04,30,03,16,8.40
2016,04,30,03,17,8.40
2016,04,30,03,18,8.40
2016,04,30,03,19,8.40
2016,04,30,03,20,8.30
2016,04,30,03,21,8.30
2016,04,30,03,22,8.30
2016,04,30,03,23,8.30
2016,04,30,03,24,8.20
2016,04,30,03,25,8.20
2016,04,30,03,26,8.20
2016,04,30,03,27,8.20
2016,04,30,03,28,8.20
2016,04,30,03,29,8.10
2016,04,30,03,30,8.10
2016,04,30,03,31,8.10
2016,04,30,03,32,8.10
2016,04,30,03,33,8.10
2016,04,30,03,34,8.10
2016,04,30,03,35,8.10
2016,04,30,03,36,8.10
2016,04,30,03,37,8.10
2016,04,30,03,38,8.10
2016,04,30,03,39,8.00
2016,04,30,03,40,8.00
2016,04,30,03,41,8.00
2016,04,30,03,42,8.00
2016,04,30,03,43,7.90
2016,04,30,03,44,7.90
2016,04,30,03,45,7.90
2016,04,30,03,46,7.90
2016,04,30,03,47,7.90
2016,04,30,03,48,7.90
2016,04,30,03,49,7.90
2016,04,30,03,50,7.90
2016,04,30,03,51,7.90
2016,04,30,03,52,7.90
2016,04,30,03,53,7.90
2016,04,30,03,54,7.90
2016,04,30,03,55,7.80
2016,04,30,03,56,7.80
2016,04,30,03,57,7.80
2016,04,30,03,58,7.80
2016,04,30,03,59,7.80
2016,04,30,04,00,7.80
2016,04,30,04,01,7.80
2016,04,30,04,02,7.80
2016,04,30,04,03,7.80
2016,04,30,04,04,7.80
2016,04,30,04,05,7.80
2016,04,30,04,06,7.80
2016,04,30,04,07,7.80
2016,04,30,04,08,7.80
2016,04,30,04,09,7.80
2016,04,30,04,10,7.80
2016,04,30,04,11,7.80
2016,04,30,04,12,7.80
2016,04,30,04,13,7.80
2016,04,30,04,14,7.80
2016,04,30,04,15,7.80
2016,04,30,04,16,7.80
2016,04,30,04,17,7.80
2016,04,30,04,18,7.80
2016,04,30,04,19,7.80
2016,04,30,04,20,7.80
2016,04,30,04,21,7.80
2016,04,30,04,22,7.80
2016,04,30,04,23,7.80
2016,04,30,04,24,7.80
2016,04,30,04,25,7.80
2016,04,30,04,26,7.80
2016,04,30,04,27,7.80
2016,04,30,04,28,7.80
2016,04,30,04,29,7.80
2016,04,30,04,30,7.80
2016,04,30,04,31,7.80
2016,04,30,04,32,7.80
2016,04,30,04,33,7.80
2016,04,30,04,34,7.80
2016,04,30,04,35,7.80
2016,04,30,04,36,7.80
2016,04,30,04,37,7.80
2016,04,30,04,38,7.80
2016,04,30,04,39,7.80
2016,04,30,04,40,7.80
2016,04,30,04,41,7.80
2016,04,30,04,42,7.70
2016,04,30,04,43,7.70
2016,04,30,04,44,7.70
2016,04,30,04,45,7.70
2016,04,30,04,46,7.70
2016,04,30,04,47,7.70
2016,04,30,04,48,7.60
2016,04,30,04,49,7.60
2016,04,30,04,50,7.60
2016,04,30,04,51,7.60
2016,04,30,04,52,7.60
2016,04,30,04,53,7.60
2016,04,30,04,54,7.60
2016,04,30,04,55,7.60
2016,04,30,04,56,7.60
2016,04,30,04,57,7.50
2016,04,30,04,58,7.50
2016,04,30,04,59,7.50
2016,04,30,05,00,7.50
2016,04,30,05,01,7.50
2016,04,30,05,02,7.40
2016,04,30,05,03,7.40
2016,04,30,05,04,7.40
2016,04,30,05,05,7.40
2016,04,30,05,06,7.40
2016,04,30,05,07,7.40
2016,04,30,05,08,7.40
2016,04,30,05,09,7.40
2016,04,30,05,10,7.40
2016,04,30,05,11,7.40
2016,04,30,05,12,7.40
2016,04,30,05,13,7.40
2016,04,30,05,14,7.40
2016,04,30,05,15,7.40
2016,04,30,05,16,7.40
2016,04,30,05,17,7.40
2016,04,30,05,18,7.30
2016,04,30,05,19,7.30
2016,04,30,05,20,7.30
2016,04,30,05,21,7.30
2016,04,30,05,22,7.30
2016,04,30,05,23,7.30
2016,04,30,05,24,7.30
2016,04,30,05,25,7.30
2016,04,30,05,26,7.30
2016,04,30,05,27,7.30
2016,04,30,05,28,7.30
2016,04,30,05,29,7.20
2016,04,30,05,30,7.20
2016,04,30,05,31,7.20
2016,04,30,05,32,7.20
2016,04,30,05,33,7.20
2016,04,30,05,34,7.20
2016,04,30,05,35,7.20
2016,04,30,05,36,7.20
2016,04,30,05,37,7.20
2016,04,30,05,38,7.20
2016,04,30,05,39,7.20
2016,04,30,05,40,7.20
2016,04,30,05,41,7.20
2016,04,30,05,42,7.20
2016,04,30,05,43,7.20
2016,04,30,05,44,7.20
2016,04,30,05,45,7.20
2016,04,30,05,46,7.20
2016,04,30,05,47,7.10
2016,04,30,05,48,7.10
2016,04,30,05,49,7.10
2016,04,30,05,50,7.10
2016,04,30,05,51,7.10
2016,04,30,05,52,7.00
2016,04,30,05,53,7.00
2016,04,30,05,54,7.00
2016,04,30,05,55,6.90
2016,04,30,05,56,6.90
2016,04,30,05,57,6.90
2016,04,30,05,58,6.90
2016,04,30,05,59,6.90
2016,04,30,06,00,6.90
2016,04,30,06,01,6.90
2016,04,30,06,02,6.90
2016,04,30,06,03,6.90
2016,04,30,06,04,6.90
2016,04,30,06,05,6.80
2016,04,30,06,06,6.80
2016,04,30,06,07,6.80
2016,04,30,06,08,6.80
2016,04,30,06,09,6.80
2016,04,30,06,10,6.80
2016,04,30,06,11,6.80
2016,04,30,06,12,6.80
2016,04,30,06,13,6.80
2016,04,30,06,14,6.80
2016,04,30,06,15,6.70
2016,04,30,06,16,6.70
2016,04,30,06,17,6.70
2016,04,30,06,18,6.70
2016,04,30,06,19,6.70
2016,04,30,06,20,6.70
2016,04,30,06,21,6.70
2016,04,30,06,22,6.80
2016,04,30,06,23,6.80
2016,04,30,06,24,6.80
2016,04,30,06,25,6.80
2016,04,30,06,26,6.90
2016,04,30,06,27,6.90
2016,04,30,06,28,6.90
2016,04,30,06,29,6.80
2016,04,30,06,30,6.90
2016,04,30,06,31,6.90
2016,04,30,06,32,6.80
2016,04,30,06,33,6.80
2016,04,30,06,34,6.80
2016,04,30,06,35,6.80
2016,04,30,06,36,6.80
2016,04,30,06,37,6.80
2016,04,30,06,38,6.80
2016,04,30,06,39,6.80
2016,04,30,06,40,6.90
2016,04,30,06,41,6.80
2016,04,30,06,42,6.80
2016,04,30,06,43,6.80
2016,04,30,06,44,6.80
2016,04,30,06,45,6.80
2016,04,30,06,46,6.80
2016,04,30,06,47,6.90
2016,04,30,06,48,6.90
2016,04,30,06,49,6.90
2016,04,30,06,50,6.90
2016,04,30,06,51,6.90
2016,04,30,06,52,6.90
2016,04,30,06,53,6.90
2016,04,30,06,54,6.90
2016,04,30,06,55,6.90
2016,04,30,06,56,6.90
2016,04,30,06,57,6.90
2016,04,30,06,58,6.90
2016,04,30,06,59,6.90
2016,04,30,07,00,6.90
2016,04,30,07,01,7.00
2016,04,30,07,02,7.00
2016,04,30,07,03,7.00
2016,04,30,07,04,7.00
2016,04,30,07,05,7.10
2016,04,30,07,06,7.10
2016,04,30,07,07,7.10
2016,04,30,07,08,7.20
2016,04,30,07,09,7.20
2016,04,30,07,10,7.20
2016,04,30,07,11,7.20
2016,04,30,07,12,7.30
2016,04,30,07,13,7.30
2016,04,30,07,14,7.30
2016,04,30,07,15,7.30
2016,04,30,07,16,7.40
2016,04,30,07,17,7.40
2016,04,30,07,18,7.50
2016,04,30,07,19,7.50
2016,04,30,07,20,7.50
2016,04,30,07,21,7.50
2016,04,30,07,22,7.60
2016,04,30,07,23,7.60
2016,04,30,07,24,7.60
2016,04,30,07,25,7.60
2016,04,30,07,26,7.60
2016,04,30,07,27,7.70
2016,04,30,07,28,7.70
2016,04,30,07,29,7.70
2016,04,30,07,30,7.80
2016,04,30,07,31,7.80
2016,04,30,07,32,7.80
2016,04,30,07,33,7.80
2016,04,30,07,34,7.80
2016,04,30,07,35,7.80
2016,04,30,07,36,7.80
2016,04,30,07,37,7.90
2016,04,30,07,38,7.90
2016,04,30,07,39,7.90
2016,04,30,07,40,8.00
2016,04,30,07,41,8.00
2016,04,30,07,42,8.00
2016,04,30,07,43,8.10
2016,04,30,07,44,8.10
2016,04,30,07,45,8.20
2016,04,30,07,46,8.20
2016,04,30,07,47,8.20
2016,04,30,07,48,8.30
2016,04,30,07,49,8.30
2016,04,30,07,50,8.30
2016,04,30,07,51,8.30
2016,04,30,07,52,8.40
2016,04,30,07,53,8.40
2016,04,30,07,54,8.40
2016,04,30,07,55,8.50
2016,04,30,07,56,8.50
2016,04,30,07,57,8.50
2016,04,30,07,58,8.50
2016,04,30,07,59,8.50
2016,04,30,08,00,8.60
2016,04,30,08,01,8.60
2016,04,30,08,02,8.60
2016,04,30,08,03,8.60
2016,04,30,08,04,8.70
2016,04,30,08,05,8.70
2016,04,30,08,06,8.70
2016,04,30,08,07,8.70
2016,04,30,08,08,8.70
2016,04,30,08,09,8.80
2016,04,30,08,10,8.80
2016,04,30,08,11,8.80
2016,04,30,08,12,8.80
2016,04,30,08,13,8.80
2016,04,30,08,14,8.90
2016,04,30,08,15,8.90
2016,04,30,08,16,8.90
2016,04,30,08,17,8.90
2016,04,30,08,18,8.90
2016,04,30,08,19,8.90
2016,04,30,08,20,8.90
2016,04,30,08,21,8.90
2016,04,30,08,22,9.00
2016,04,30,08,23,9.00
2016,04,30,08,24,9.00
2016,04,30,08,25,9.00
2016,04,30,08,26,9.00
2016,04,30,08,27,9.00
2016,04,30,08,28,9.00
2016,04,30,08,29,9.10
2016,04,30,08,30,9.10
2016,04,30,08,31,9.10
2016,04,30,08,32,9.10
2016,04,30,08,33,9.20
2016,04,30,08,34,9.20
2016,04,30,08,35,9.30
2016,04,30,08,36,9.30
2016,04,30,08,37,9.40
2016,04,30,08,38,9.50
2016,04,30,08,39,9.50
2016,04,30,08,40,9.60
2016,04,30,08,41,9.60
2016,04,30,08,42,9.70
2016,04,30,08,43,9.80
2016,04,30,08,44,9.80
2016,04,30,08,45,9.90
2016,04,30,08,46,10.00
2016,04,30,08,47,10.00
2016,04,30,08,48,10.10
2016,04,30,08,49,10.10
2016,04,30,08,50,10.20
2016,04,30,08,51,10.20
2016,04,30,08,52,10.30
2016,04,30,08,53,10.30
2016,04,30,08,54,10.30
2016,04,30,08,55,10.40
2016,04,30,08,56,10.40
2016,04,30,08,57,10.50
2016,04,30,08,58,10.60
2016,04,30,08,59,10.60
2016,04,30,09,00,10.70
2016,04,30,09,01,10.70
2016,04,30,09,02,10.70
2016,04,30,09,03,10.70
2016,04,30,09,04,10.80
2016,04,30,09,05,10.80
2016,04,30,09,06,10.80
2016,04,30,09,07,10.90
2016,04,30,09,08,10.90
2016,04,30,09,09,10.90
2016,04,30,09,10,10.90
2016,04,30,09,11,11.00
2016,04,30,09,12,11.00
2016,04,30,09,13,11.00
2016,04,30,09,14,11.10
2016,04,30,09,15,11.10
2016,04,30,09,16,11.00
2016,04,30,09,17,11.00
2016,04,30,09,18,11.00
2016,04,30,09,19,11.10
2016,04,30,09,20,11.10
2016,04,30,09,21,11.20
2016,04,30,09,22,11.20
2016,04,30,09,23,11.30
2016,04,30,09,24,11.30
2016,04,30,09,25,11.40
2016,04,30,09,26,11.50
2016,04,30,09,27,11.50
2016,04,30,09,28,11.50
2016,04,30,09,29,11.60
2016,04,30,09,30,11.60
2016,04,30,09,31,11.70
2016,04,30,09,32,11.70
2016,04,30,09,33,11.80
2016,04,30,09,34,11.80
2016,04,30,09,35,11.90
2016,04,30,09,36,11.90
2016,04,30,09,37,11.90
2016,04,30,09,38,11.80
2016,04,30,09,39,11.80
2016,04,30,09,40,11.80
2016,04,30,09,41,11.80
2016,04,30,09,42,11.90
2016,04,30,09,43,11.90
2016,04,30,09,44,11.90
2016,04,30,09,45,11.90
2016,04,30,09,46,12.00
2016,04,30,09,47,12.00
2016,04,30,09,48,12.10
2016,04,30,09,49,12.10
2016,04,30,09,50,12.20
2016,04,30,09,51,12.20
2016,04,30,09,52,12.20
2016,04,30,09,53,12.30
2016,04,30,09,54,12.30
2016,04,30,09,55,12.40
2016,04,30,09,56,12.50
2016,04,30,09,57,12.50
2016,04,30,09,58,12.60
2016,04,30,09,59,12.50
2016,04,30,10,00,12.50
2016,04,30,10,01,12.40
2016,04,30,10,02,12.40
2016,04,30,10,03,12.30
2016,04,30,10,04,12.20
2016,04,30,10,05,12.00
2016,04,30,10,06,11.90
2016,04,30,10,07,11.90
2016,04,30,10,08,11.80
2016,04,30,10,09,11.80
2016,04,30,10,10,11.80
2016,04,30,10,11,11.80
2016,04,30,10,12,11.80
2016,04,30,10,13,11.80
2016,04,30,10,14,11.80
2016,04,30,10,15,11.80
2016,04,30,10,16,11.80
2016,04,30,10,17,11.80
2016,04,30,10,18,11.80
2016,04,30,10,19,11.80
2016,04,30,10,20,11.80
2016,04,30,10,21,11.90
2016,04,30,10,22,11.90
2016,04,30,10,23,12.00
2016,04,30,10,24,12.10
2016,04,30,10,25,12.20
2016,04,30,10,26,12.20
2016,04,30,10,27,12.10
2016,04,30,10,28,12.10
2016,04,30,10,29,12.10
2016,04,30,10,30,12.10
2016,04,30,10,31,12.10
2016,04,30,10,32,12.10
2016,04,30,10,33,12.10
2016,04,30,10,34,12.10
2016,04,30,10,35,12.00
2016,04,30,10,36,12.00
2016,04,30,10,37,12.00
2016,04,30,10,38,12.00
2016,04,30,10,39,12.10
2016,04,30,10,40,12.10
2016,04,30,10,41,12.20
2016,04,30,10,42,12.20
2016,04,30,10,43,12.30
2016,04,30,10,44,12.30
2016,04,30,10,45,12.40
2016,04,30,10,46,12.40
2016,04,30,10,47,12.40
2016,04,30,10,48,12.50
2016,04,30,10,49,12.50
2016,04,30,10,50,12.50
2016,04,30,10,51,12.40
2016,04,30,10,52,12.40
2016,04,30,10,53,12.40
2016,04,30,10,54,12.50
2016,04,30,10,55,12.50
2016,04,30,10,56,12.50
2016,04,30,10,57,12.60
2016,04,30,10,58,12.60
2016,04,30,10,59,12.60
2016,04,30,11,00,12.70
2016,04,30,11,01,12.70
2016,04,30,11,02,12.80
2016,04,30,11,03,12.80
2016,04,30,11,04,12.90
2016,04,30,11,05,12.90
2016,04,30,11,06,12.90
2016,04,30,11,07,13.00
2016,04,30,11,08,13.00
2016,04,30,11,09,12.90
2016,04,30,11,10,12.80
2016,04,30,11,11,12.80
2016,04,30,11,12,12.70
2016,04,30,11,13,12.70
2016,04,30,11,14,12.70
2016,04,30,11,15,12.70
2016,04,30,11,16,12.80
2016,04,30,11,17,12.80
2016,04,30,11,18,12.90
2016,04,30,11,19,12.90
2016,04,30,11,20,12.90
2016,04,30,11,21,12.80
2016,04,30,11,22,12.80
2016,04,30,11,23,12.80
2016,04,30,11,24,12.80
2016,04,30,11,25,12.80
2016,04,30,11,26,12.90
2016,04,30,11,27,12.90
2016,04,30,11,28,13.00
2016,04,30,11,29,13.00
2016,04,30,11,30,12.90
2016,04,30,11,31,13.00
2016,04,30,11,32,13.10
2016,04,30,11,33,13.10
2016,04,30,11,34,13.20
2016,04,30,11,35,13.20
2016,04,30,11,36,13.20
2016,04,30,11,37,13.30
2016,04,30,11,38,13.30
2016,04,30,11,39,13.40
2016,04,30,11,40,13.40
2016,04,30,11,41,13.40
2016,04,30,11,42,13.50
2016,04,30,11,43,13.60
2016,04,30,11,44,13.60
2016,04,30,11,45,13.60
2016,04,30,11,46,13.70
2016,04,30,11,47,13.70
2016,04,30,11,48,13.80
2016,04,30,11,49,13.90
2016,04,30,11,50,14.00
2016,04,30,11,51,14.00
2016,04,30,11,52,14.00
2016,04,30,11,53,14.10
2016,04,30,11,54,14.10
2016,04,30,11,55,14.10
2016,04,30,11,56,14.10
2016,04,30,11,57,14.10
2016,04,30,11,58,14.10
2016,04,30,11,59,14.20
2016,04,30,12,00,14.20
2016,04,30,12,01,14.20
2016,04,30,12,02,14.20
2016,04,30,12,03,14.10
2016,04,30,12,04,14.10
2016,04,30,12,05,14.10
2016,04,30,12,06,14.10
2016,04,30,12,07,14.10
2016,04,30,12,08,14.20
2016,04,30,12,09,14.20
2016,04,30,12,10,14.20
2016,04,30,12,11,14.20
2016,04,30,12,12,14.10
2016,04,30,12,13,14.10
2016,04,30,12,14,14.20
2016,04,30,12,15,14.20
2016,04,30,12,16,14.20
2016,04,30,12,17,14.30
2016,04,30,12,18,14.30
2016,04,30,12,19,14.30
2016,04,30,12,20,14.30
2016,04,30,12,21,14.30
2016,04,30,12,22,14.20
2016,04,30,12,23,14.20
2016,04,30,12,24,14.20
2016,04,30,12,25,14.30
2016,04,30,12,26,14.30
2016,04,30,12,27,14.40
2016,04,30,12,28,14.40
2016,04,30,12,29,14.40
2016,04,30,12,30,14.50
2016,04,30,12,31,14.50
2016,04,30,12,32,14.60
2016,04,30,12,33,14.60
2016,04,30,12,34,14.60
2016,04,30,12,35,14.70
2016,04,30,12,36,14.80
2016,04,30,12,37,14.80
2016,04,30,12,38,14.90
2016,04,30,12,39,14.80
2016,04,30,12,40,14.80
2016,04,30,12,41,14.80
2016,04,30,12,42,14.80
2016,04,30,12,43,14.80
2016,04,30,12,44,14.80
2016,04,30,12,45,14.80
2016,04,30,12,46,14.80
2016,04,30,12,47,14.80
2016,04,30,12,48,14.80
2016,04,30,12,49,14.70
2016,04,30,12,50,14.70
2016,04,30,12,51,14.80
2016,04,30,12,52,14.80
2016,04,30,12,53,14.80
2016,04,30,12,54,14.80
2016,04,30,12,55,14.90
2016,04,30,12,56,15.00
2016,04,30,12,57,15.10
2016,04,30,12,58,15.20
2016,04,30,12,59,15.20
2016,04,30,13,00,15.20
2016,04,30,13,01,15.30
2016,04,30,13,02,15.30
2016,04,30,13,03,15.30
2016,04,30,13,04,15.30
2016,04,30,13,05,15.30
2016,04,30,13,06,15.30
2016,04,30,13,07,15.20
2016,04,30,13,08,15.20
2016,04,30,13,09,15.20
2016,04,30,13,10,15.30
2016,04,30,13,11,15.30
2016,04,30,13,12,15.30
2016,04,30,13,13,15.40
2016,04,30,13,14,15.50
2016,04,30,13,15,15.60
2016,04,30,13,16,15.60
2016,04,30,13,17,15.70
2016,04,30,13,18,15.70
2016,04,30,13,19,15.70
2016,04,30,13,20,15.80
2016,04,30,13,21,15.80
2016,04,30,13,22,15.80
2016,04,30,13,23,15.80
2016,04,30,13,24,15.80
2016,04,30,13,25,15.80
2016,04,30,13,26,15.80
2016,04,30,13,27,15.60
2016,04,30,13,28,15.60
2016,04,30,13,29,15.50
2016,04,30,13,30,15.50
2016,04,30,13,31,15.40
2016,04,30,13,32,15.30
2016,04,30,13,33,15.20
2016,04,30,13,34,15.20
2016,04,30,13,35,15.30
2016,04,30,13,36,15.30
2016,04,30,13,37,15.30
2016,04,30,13,38,15.30
2016,04,30,13,39,15.30
2016,04,30,13,40,15.30
2016,04,30,13,41,15.40
2016,04,30,13,42,15.40
2016,04,30,13,43,15.40
2016,04,30,13,44,15.50
2016,04,30,13,45,15.60
2016,04,30,13,46,15.60
2016,04,30,13,47,15.60
2016,04,30,13,48,15.60
2016,04,30,13,49,15.60
2016,04,30,13,50,15.70
2016,04,30,13,51,15.70
2016,04,30,13,52,15.70
2016,04,30,13,53,15.70
2016,04,30,13,54,15.70
2016,04,30,13,55,15.70
2016,04,30,13,56,15.70
2016,04,30,13,57,15.70
2016,04,30,13,58,15.70
2016,04,30,13,59,15.80
2016,04,30,14,00,15.80
2016,04,30,14,01,15.90
2016,04,30,14,02,16.00
2016,04,30,14,03,16.00
2016,04,30,14,04,16.10
2016,04,30,14,05,16.20
2016,04,30,14,06,16.20
2016,04,30,14,07,16.20
2016,04,30,14,08,16.20
2016,04,30,14,09,16.30
2016,04,30,14,10,16.30
2016,04,30,14,11,16.30
2016,04,30,14,12,16.30
2016,04,30,14,13,16.30
2016,04,30,14,14,16.20
2016,04,30,14,15,16.20
2016,04,30,14,16,16.10
2016,04,30,14,17,16.20
2016,04,30,14,18,16.10
2016,04,30,14,19,16.10
2016,04,30,14,20,16.20
2016,04,30,14,21,16.20
2016,04,30,14,22,16.20
2016,04,30,14,23,16.20
2016,04,30,14,24,16.20
2016,04,30,14,25,16.20
2016,04,30,14,26,16.30
2016,04,30,14,27,16.30
2016,04,30,14,28,16.30
2016,04,30,14,29,16.40
2016,04,30,14,30,16.40
2016,04,30,14,31,16.40
2016,04,30,14,32,16.50
2016,04,30,14,33,16.40
2016,04,30,14,34,16.40
2016,04,30,14,35,16.40
2016,04,30,14,36,16.40
2016,04,30,14,37,16.40
2016,04,30,14,38,16.40
2016,04,30,14,39,16.40
2016,04,30,14,40,16.50
2016,04,30,14,41,16.40
2016,04,30,14,42,16.40
2016,04,30,14,43,16.40
2016,04,30,14,44,16.30
2016,04,30,14,45,16.20
2016,04,30,14,46,16.10
2016,04,30,14,47,16.00
2016,04,30,14,48,15.90
2016,04,30,14,49,15.90
2016,04,30,14,50,15.90
2016,04,30,14,51,16.00
2016,04,30,14,52,16.10
2016,04,30,14,53,16.10
2016,04,30,14,54,16.20
2016,04,30,14,55,16.20
2016,04,30,14,56,16.20
2016,04,30,14,57,16.30
2016,04,30,14,58,16.20
2016,04,30,14,59,16.30
2016,04,30,15,00,16.30
2016,04,30,15,01,16.30
2016,04,30,15,02,16.40
2016,04,30,15,03,16.40
2016,04,30,15,04,16.40
2016,04,30,15,05,16.40
2016,04,30,15,06,16.40
2016,04,30,15,07,16.40
2016,04,30,15,08,16.40
2016,04,30,15,09,16.40
2016,04,30,15,10,16.40
2016,04,30,15,11,16.40
2016,04,30,15,12,16.40
2016,04,30,15,13,16.40
2016,04,30,15,14,16.50
2016,04,30,15,15,16.50
2016,04,30,15,16,16.60
2016,04,30,15,17,16.60
2016,04,30,15,18,16.50
2016,04,30,15,19,16.50
2016,04,30,15,20,16.60
2016,04,30,15,21,16.60
2016,04,30,15,22,16.60
2016,04,30,15,23,16.60
2016,04,30,15,24,16.60
2016,04,30,15,25,16.60
2016,04,30,15,26,16.60
2016,04,30,15,27,16.50
2016,04,30,15,28,16.40
2016,04,30,15,29,16.30
2016,04,30,15,30,16.20
2016,04,30,15,31,16.20
2016,04,30,15,32,16.20
2016,04,30,15,33,16.30
2016,04,30,15,34,16.30
2016,04,30,15,35,16.40
2016,04,30,15,36,16.50
2016,04,30,15,37,16.50
2016,04,30,15,38,16.50
2016,04,30,15,39,16.50
2016,04,30,15,40,16.60
2016,04,30,15,41,16.60
2016,04,30,15,42,16.70
2016,04,30,15,43,16.70
2016,04,30,15,44,16.90
2016,04,30,15,45,17.00
2016,04,30,15,46,17.10
2016,04,30,15,47,17.20
2016,04,30,15,48,17.30
2016,04,30,15,49,17.30
2016,04,30,15,50,17.30
2016,04,30,15,51,17.30
2016,04,30,15,52,17.30
2016,04,30,15,53,17.30
2016,04,30,15,54,17.30
2016,04,30,15,55,17.20
2016,04,30,15,56,17.20
2016,04,30,15,57,17.20
2016,04,30,15,58,17.30
2016,04,30,15,59,17.30
2016,04,30,16,00,17.30
2016,04,30,16,01,17.30
2016,04,30,16,02,17.30
2016,04,30,16,03,17.40
2016,04,30,16,04,17.50
2016,04,30,16,05,17.50
2016,04,30,16,06,17.60
2016,04,30,16,07,17.70
2016,04,30,16,08,17.70
2016,04,30,16,09,17.80
2016,04,30,16,10,17.80
2016,04,30,16,11,17.80
2016,04,30,16,12,17.90
2016,04,30,16,13,17.90
2016,04,30,16,14,18.00
2016,04,30,16,15,18.00
2016,04,30,16,16,17.90
2016,04,30,16,17,17.90
2016,04,30,16,18,17.80
2016,04,30,16,19,17.80
2016,04,30,16,20,17.80
2016,04,30,16,21,17.80
2016,04,30,16,22,17.80
2016,04,30,16,23,17.80
2016,04,30,16,24,17.80
2016,04,30,16,25,17.80
2016,04,30,16,26,17.80
2016,04,30,16,27,17.90
2016,04,30,16,28,17.90
2016,04,30,16,29,18.00
2016,04,30,16,30,18.00
2016,04,30,16,31,18.10
2016,04,30,16,32,18.10
2016,04,30,16,33,18.10
2016,04,30,16,34,18.20
2016,04,30,16,35,18.20
2016,04,30,16,36,18.30
2016,04,30,16,37,18.30
2016,04,30,16,38,18.30
2016,04,30,16,39,18.30
2016,04,30,16,40,18.30
2016,04,30,16,41,18.30
2016,04,30,16,42,18.30
2016,04,30,16,43,18.20
2016,04,30,16,44,18.20
2016,04,30,16,45,18.20
2016,04,30,16,46,18.20
2016,04,30,16,47,18.30
2016,04,30,16,48,18.30
2016,04,30,16,49,18.40
2016,04,30,16,50,18.40
2016,04,30,16,51,18.50
2016,04,30,16,52,18.60
2016,04,30,16,53,18.60
2016,04,30,16,54,18.60
2016,04,30,16,55,18.60
2016,04,30,16,56,18.60
2016,04,30,16,57,18.60
2016,04,30,16,58,18.70
2016,04,30,16,59,18.70
2016,04,30,17,00,18.80
2016,04,30,17,01,18.80
2016,04,30,17,02,18.80
2016,04,30,17,03,18.80
2016,04,30,17,04,18.90
2016,04,30,17,05,18.90
2016,04,30,17,06,18.90
2016,04,30,17,07,19.00
2016,04,30,17,08,19.10
2016,04,30,17,09,19.10
2016,04,30,17,10,19.10
2016,04,30,17,11,19.10
2016,04,30,17,12,19.20
2016,04,30,17,13,19.20
2016,04,30,17,14,19.20
2016,04,30,17,15,19.10
2016,04,30,17,16,19.00
2016,04,30,17,17,19.00
2016,04,30,17,18,18.90
2016,04,30,17,19,18.90
2016,04,30,17,20,18.90
2016,04,30,17,21,18.90
2016,04,30,17,22,18.90
2016,04,30,17,23,18.90
2016,04,30,17,24,18.90
2016,04,30,17,25,18.90
2016,04,30,17,26,18.80
2016,04,30,17,27,18.80
2016,04,30,17,28,18.80
2016,04,30,17,29,18.90
2016,04,30,17,30,18.90
2016,04,30,17,31,18.90
2016,04,30,17,32,18.90
2016,04,30,17,33,18.80
2016,04,30,17,34,18.80
2016,04,30,17,35,18.80
2016,04,30,17,36,18.80
2016,04,30,17,37,18.70
2016,04,30,17,38,18.70
2016,04,30,17,39,18.70
2016,04,30,17,40,18.70